Date String (YYYY-MM-DD hh:mm:ss) UTC,Instrument flags,Ambient pressure (hPa),Sample flow (lpm),Bypass flow (lpm),Sample temperature (°C),Ambient temperature (°C),ASC tube jacket temperature (°C),LED temperature (°C),Box temperature (°C),Sample RH (%),Span deviation,Mass concentration (μg/m³),Mass concentration (μg/m³),Mass concentration (μg/m³)
DateTimeUTC,F1_M11,P_M11,Q1_M11,Q2_M11,T1_M11,T2_M11,T3_M11,T4_M11,T5_M11,U1_M11,ZSPAN_M11,X2_M11,X0_M11,X1_M11
2022-06-05 10:00:00,,0819.6,5.00,0.00,30.2,29.2,00.0,39.1,32.1,18.9,0000.0,0004.51,0012.75,0003.49
2022-06-05 10:01:00,,0819.6,5.01,0.00,30.2,29.2,00.0,39.1,32.1,18.8,0000.0,0004.52,0012.36,0003.49
2022-06-05 10:02:00,,0819.6,5.01,0.00,30.2,29.2,00.0,39.1,32.1,19.1,0000.0,0004.51,0012.09,0003.48
2022-06-05 10:03:00,,0819.7,4.99,0.00,30.2,29.2,00.0,39.1,32.1,19.1,0000.0,0004.45,0013.35,0003.48
2022-06-05 10:04:00,,0819.7,4.99,0.00,30.2,29.2,00.0,39.1,32.1,18.9,0000.0,0004.47,0014.22,0003.48
2022-06-05 10:05:00,,0819.7,5.01,0.00,30.2,29.2,00.0,39.1,32.1,18.8,0000.0,0004.44,0014.36,0003.47
2022-06-05 10:06:00,,0819.7,4.99,0.00,30.2,29.2,00.0,39.1,32.1,18.7,0000.0,0004.43,0014.38,0003.47
2022-06-05 10:07:00,,0819.7,5.00,0.00,30.3,29.2,00.0,39.2,32.1,18.4,0000.0,0004.50,0014.21,0003.47
2022-06-05 10:08:00,,0819.7,5.01,0.00,30.3,29.2,00.0,39.2,32.1,18.1,0000.0,0004.52,0014.14,0003.46
2022-06-05 10:09:00,,0819.8,5.00,0.00,30.2,29.2,00.0,39.2,32.1,17.9,0000.0,0004.46,0013.34,0003.45
2022-06-05 10:10:00,,0819.8,5.00,0.00,30.3,29.2,00.0,39.2,32.1,17.5,0000.0,0004.42,0014.05,0003.42
2022-06-05 10:11:00,,0819.8,4.99,0.00,30.3,29.2,00.0,39.2,32.1,17.1,0000.0,0004.38,0013.74,0003.40
2022-06-05 10:12:00,,0819.8,5.00,0.00,30.3,29.2,00.0,39.2,32.1,17.1,0000.0,0004.34,0013.25,0003.37
2022-06-05 10:13:00,,0819.8,5.01,0.00,30.3,29.2,00.0,39.2,32.1,17.3,0000.0,0004.29,0012.98,0003.35
2022-06-05 10:14:00,,0819.9,4.98,0.00,30.3,29.2,00.0,39.2,32.1,17.6,0000.0,0004.27,0011.91,0003.32
2022-06-05 10:15:00,,0819.9,4.99,0.00,30.3,29.2,00.0,39.2,32.1,17.9,0000.0,0004.24,0011.15,0003.30
2022-06-05 10:16:00,,0819.9,5.01,0.00,30.3,29.2,00.0,39.2,32.1,18.6,0000.0,0004.23,0011.82,0003.29
2022-06-05 10:17:00,,0819.9,4.99,0.00,30.3,29.2,00.0,39.2,32.1,18.7,0000.0,0004.21,0012.50,0003.28
2022-06-05 10:18:00,,0819.9,4.99,0.00,30.3,29.2,00.0,39.2,32.1,18.8,0000.0,0004.08,0012.12,0003.25
2022-06-05 10:19:00,,0819.9,5.01,0.00,30.3,29.2,00.0,39.2,32.1,18.4,0000.0,0004.05,0012.10,0003.25
2022-06-05 10:20:00,,0820.0,4.99,0.00,30.3,29.2,00.0,39.2,32.1,18.1,0000.0,0004.11,0012.28,0003.26
2022-06-05 10:21:00,,0820.0,5.00,0.00,30.3,29.2,00.0,39.2,32.1,18.0,0000.0,0004.11,0012.14,0003.26
2022-06-05 10:22:00,,0820.0,5.00,0.00,30.3,29.2,00.0,39.2,32.1,18.3,0000.0,0004.12,0011.75,0003.27
2022-06-05 10:23:00,,0820.0,5.01,0.00,30.3,29.2,00.0,39.2,32.1,18.3,0000.0,0004.14,0011.84,0003.28
2022-06-05 10:24:00,,0820.1,5.00,0.00,30.3,29.2,00.0,39.2,32.1,17.9,0000.0,0004.19,0011.94,0003.29
2022-06-05 10:25:00,,0820.2,4.99,0.00,30.3,29.2,00.0,39.2,32.1,17.9,0000.0,0004.20,0011.96,0003.30
2022-06-05 10:26:00,,0820.2,5.01,0.00,30.3,29.2,00.0,39.2,32.1,18.3,0000.0,0004.26,0011.67,0003.32
2022-06-05 10:27:00,,0820.3,4.99,0.00,30.3,29.3,00.0,39.2,32.1,21.0,0000.0,0004.24,0010.76,0003.34
2022-06-05 10:28:00,,0820.3,4.99,0.00,30.3,29.3,00.0,39.2,32.1,21.5,0000.0,0004.27,0010.07,0003.36
2022-06-05 10:29:00,,0820.3,5.00,0.00,30.3,29.3,00.0,39.2,32.1,21.7,0000.0,0004.35,0010.15,0003.39
2022-06-05 10:30:00,,0820.3,5.01,0.00,30.3,29.3,00.0,39.2,32.2,21.8,0000.0,0004.38,0010.41,0003.41
2022-06-05 10:31:00,,0820.3,5.00,0.00,30.3,29.3,00.0,39.2,32.2,21.9,0000.0,0004.37,0010.83,0003.42
2022-06-05 10:32:00,,0820.3,4.99,0.00,30.3,29.3,00.0,39.2,32.2,21.6,0000.0,0004.39,0011.44,0003.44
2022-06-05 10:33:00,,0820.3,4.99,0.00,30.4,29.3,00.0,39.2,32.2,21.9,0000.0,0004.44,0011.61,0003.46
2022-06-05 10:34:00,,0820.3,4.99,0.00,30.4,29.3,00.0,39.2,32.2,21.5,0000.0,0004.48,0012.16,0003.47
2022-06-05 10:35:00,,0820.3,5.02,0.00,30.4,29.3,00.0,39.3,32.2,21.0,0000.0,0004.52,0014.06,0003.48
2022-06-05 10:36:00,,0820.3,5.00,0.00,30.4,29.3,00.0,39.3,32.2,21.1,0000.0,0004.57,0014.88,0003.49
2022-06-05 10:37:00,,0820.3,4.99,0.00,30.4,29.3,00.0,39.3,32.2,21.2,0000.0,0004.58,0015.75,0003.50
2022-06-05 10:38:00,,0820.3,4.99,0.00,30.4,29.3,00.0,39.3,32.2,20.6,0000.0,0004.70,0016.82,0003.51
2022-06-05 10:39:00,,0820.3,5.00,0.00,30.4,29.3,00.0,39.3,32.2,20.7,0000.0,0004.76,0017.07,0003.50
2022-06-05 10:40:00,,0820.3,5.01,0.00,30.4,29.3,00.0,39.3,32.2,20.3,0000.0,0004.79,0017.38,0003.48
2022-06-05 10:41:00,,0820.3,5.01,0.00,30.4,29.3,00.0,39.3,32.2,20.0,0000.0,0004.81,0018.10,0003.46
2022-06-05 10:42:00,,0820.3,5.00,0.00,30.4,29.3,00.0,39.3,32.2,19.6,0000.0,0004.91,0019.24,0003.44
2022-06-05 10:43:00,,0820.3,5.01,0.00,30.4,29.3,00.0,39.3,32.2,19.4,0000.0,0004.92,0019.60,0003.43
2022-06-05 10:44:00,,0820.3,5.00,0.00,30.4,29.3,00.0,39.3,32.2,19.2,0000.0,0004.93,0020.21,0003.41
2022-06-05 10:45:00,,0820.3,5.00,0.00,30.4,29.3,00.0,39.3,32.2,19.4,0000.0,0004.91,0020.94,0003.39
2022-06-05 10:46:00,,0820.3,5.01,0.00,30.4,29.3,00.0,39.3,32.2,18.6,0000.0,0004.91,0020.94,0003.38
2022-06-05 10:47:00,,0820.4,5.00,0.00,30.4,29.3,00.0,39.3,32.2,18.4,0000.0,0004.92,0022.55,0003.35
2022-06-05 10:48:00,,0820.4,4.99,0.00,30.4,29.3,00.0,39.3,32.2,18.5,0000.0,0004.93,0022.20,0003.33
2022-06-05 10:49:00,,0820.3,5.01,0.00,30.4,29.3,00.0,39.3,32.2,18.7,0000.0,0004.87,0022.08,0003.30
2022-06-05 10:50:00,,0820.4,5.00,0.00,30.4,29.3,00.0,39.3,32.2,18.8,0000.0,0004.82,0023.50,0003.28
2022-06-05 10:51:00,,0820.4,5.00,0.00,30.4,29.3,00.0,39.3,32.2,19.0,0000.0,0004.78,0024.26,0003.27
2022-06-05 10:52:00,,0820.3,5.00,0.00,30.4,29.3,00.0,39.3,32.2,18.9,0000.0,0004.80,0024.30,0003.27
2022-06-05 10:53:00,,0820.4,4.99,0.00,30.4,29.3,00.0,39.3,32.2,18.5,0000.0,0004.72,0024.83,0003.26
2022-06-05 10:54:00,,0820.4,5.01,0.00,30.4,29.3,00.0,39.3,32.2,17.8,0000.0,0004.77,0025.43,0003.26
2022-06-05 10:55:00,,0820.4,4.99,0.00,30.4,29.3,00.0,39.3,32.2,17.6,0000.0,0004.76,0024.56,0003.25
2022-06-05 10:56:00,,0820.3,5.00,0.00,30.4,29.3,00.0,39.3,32.2,17.5,0000.0,0004.75,0023.94,0003.23
2022-06-05 10:57:00,,0820.3,5.01,0.00,30.4,29.3,00.0,39.3,32.2,16.9,0000.0,0004.72,0023.53,0003.21
2022-06-05 10:58:00,,0820.3,4.99,0.00,30.4,29.3,00.0,39.3,32.2,16.5,0000.0,0004.63,0021.43,0003.20
2022-06-05 10:59:00,,0820.3,5.00,0.00,30.4,29.3,00.0,39.3,32.2,15.9,0000.0,0004.57,0020.63,0003.18
